Regional Weather Roundup
Issued by NWS

Home | Current Version | Previous Version | Graphics & Text | Print | Product List | Glossary On
Versions: 1 2 3 4 5 6 7 8 9 10 11 12 13 14 15 16 17 18 19 20 21 22 23 24 25 26 27 28 29 30 31 32 33 34 35 36 37 38 39 40 41 42 43 44 45 46 47 48 49 50
000
ASUS43 KBIS 300010
RWRND

NORTH DAKOTA REGIONAL WEATHER ROUNDUP
NATIONAL WEATHER SERVICE BISMARCK ND
700 PM CDT SAT AUG 29 2015

NOTE: "FAIR" INDICATES FEW OR NO CLOUDS BELOW 12,000 FEET WITH NO
SIGNIFICANT WEATHER AND/OR OBSTRUCTIONS TO VISIBILITY.


NDZ001>003-009>011-017-300100-
NORTHWEST NORTH DAKOTA

CITY           SKY/WX    TMP DP  RH WIND       PRES   REMARKS
WILLISTON      MOSUNNY   92  47  21 CALM      29.78F HAZE
6HR MIN TEMP:  87; 6HR MAX TEMP:  94;

MINOT          MOSUNNY   86  53  32 S6        29.78F HAZE
MINOT AFB      MOSUNNY   89  54  29 S6        29.76F
$$

NDZ018>021-031>035-040>046-300100-
SOUTHWEST NORTH DAKOTA

CITY           SKY/WX    TMP DP  RH WIND       PRES   REMARKS
BISMARCK       MOSUNNY   86  62  44 SE8       29.83F HAZE
6HR MIN TEMP:  84; 6HR MAX TEMP:  93;

DICKINSON      MOSUNNY   92  42  17 SW8       29.82F
GARRISON         N/A     84  57  39 S7        29.81F
6HR MIN TEMP:  82; 6HR MAX TEMP:  94;

HETTINGER ARPT SUNNY     93  44  18 S9        29.88F
$$

NDZ004>008-012>016-024-026-027-054-300100-
NORTHEAST NORTH DAKOTA

CITY           SKY/WX    TMP DP  RH WIND       PRES   REMARKS
GRAND FORKS    PTSUNNY   78  69  73 S12       29.82F
GRND FRKS AFB  PTSUNNY   78  69  72 SW8       29.83S
DEVILS LAKE    MOSUNNY   81  64  57 S10       29.81F
$$

NDZ022-023-025-028>030-036>039-047>053-300100-
SOUTHEAST NORTH DAKOTA

CITY           SKY/WX    TMP DP  RH WIND       PRES   REMARKS
FARGO          PTSUNNY   81  67  62 S10       29.86F
6HR MIN TEMP:  79; 6HR MAX TEMP:  84;

JAMESTOWN      MOSUNNY   81  72  74 S7        29.85F
$$




USA.gov is the U.S. government's official web portal to all federal, state and local government web resources and services.